Regional Weather Roundup
Issued by NWS

Home | Current Version | Previous Version | Text Only | Print | Product List | Glossary Off
Versions: 1 2 3 4 5 6 7 8 9 10 11 12 13 14 15 16 17 18 19 20 21 22 23 24 25 26 27 28 29 30 31 32 33 34 35 36 37 38 39 40 41 42 43 44 45 46 47 48 49 50

000
ASUS45 KTFX 280419
RWRMT
MONTANA REGIONAL WEATHER ROUNDUP
NATIONAL WEATHER SERVICE GREAT FALLS MT
1000 PM MDT THU AUG 27 2015

NOTE: "FAIR" INDICATES FEW OR NO CLOUDS BELOW 12000 FEET WITH NO
SIGNIFICANT WEATHER AND/OR OBSTRUCTIONS TO VISIBILITY.

MTZ001>007-043-280500-
WEST OF THE DIVIDE

CITY           SKY/WX    TMP DP  RH WIND       PRES   REMARKS
KALISPELL      CLOUDY    64  40  41 CALM      30.00R SMOKE
MISSOULA       CLOUDY    70  38  31 N5        30.05R HAZE
BUTTE          PTCLDY    62  46  55 S13       30.22R
MULLAN PASS    PTCLDY    62  35  36 VRB7      30.23R
DEER LODGE       N/A     63  39  42 S3        30.18R
EUREKA           N/A     79  37  22 E6        29.99R
HAMILTON         N/A     66  46  48 S5        30.09R
LIBBY            N/A     66  39  37 CALM      30.00R
PLAINS           N/A     71  40  32 CALM      30.02R
RONAN            N/A     66  45  46 SW3       30.08R
$$

MTZ008-052>055-280500-
SOUTHWEST MONTANA

CITY           SKY/WX    TMP DP  RH WIND       PRES   REMARKS
BOZEMAN        PTCLDY    67  44  43 SE17      30.13R
DILLON         PTCLDY    64  44  48 N9        30.16R
W YELLOWSTONE  MOCLDY    50  43  76 CALM      30.33R
THREE FORKS      N/A     67  50  54 N1        30.12R
TWIN BRIDGES     N/A     72  41  32 N12       30.13R
$$

MTZ009-010-012-014-046-048-049-054-280500-
EAST SLOPES AND CENTRAL MONTANA

CITY           SKY/WX    TMP DP  RH WIND       PRES   REMARKS
CUT BANK       CLOUDY    67  37  33 W7        30.00R HAZE
GREAT FALLS    CLOUDY    68  33  27 W7        30.00R HAZE
MALMSTROM AFB  CLOUDY    72  38  29 SW8       29.99R
HELENA         CLOUDY    73  41  31 CALM      30.06R
CONRAD           N/A     68  50  52 W6        30.02S
$$

MTZ011-013-016-021-045-047-050-051-280500-
NORTH CENTRAL MONTANA

CITY           SKY/WX    TMP DP  RH WIND       PRES   REMARKS
HAVRE          MOCLDY    70  44  39 CALM      29.90R
LEWISTOWN      CLOUDY    64  49  57 SE5       30.04S
N BAR RANCH      N/A     63  45  51 W8        30.08S
CHINOOK          N/A     66  52  59 CALM      29.89S
FORT BENTON      N/A     73  45  35 S6        29.95R
$$

MTZ017>020-022>027-061-062-280500-
NORTHEAST MONTANA

CITY           SKY/WX    TMP DP  RH WIND       PRES   REMARKS
GLASGOW        PTCLDY    77  55  46 NW5       29.87S
JORDAN           N/A     69  46  43 W7        29.92R
SIDNEY         MOCLDY    72  61  68 S3        29.87F
WOLF POINT     MOCLDY    70  56  61 W5        29.86R
MALTA            N/A     63  52  67 CALM      29.86S
PLENTYWOOD       N/A     79  57  47 S8        29.86S
POPLAR           N/A     73  57  56 CALM      29.86S
SCOBEY           N/A     72  51  47 CALM      29.88
$$

MTZ028>42-056>058-280500-
SOUTHCENTRAL AND SOUTHEAST MONTANA

CITY           SKY/WX    TMP DP  RH WIND       PRES   REMARKS
BAKER          MOCLDY    67  57  70 CALM      29.97S
BILLINGS       CLOUDY    71  44  37 W17       30.05F
LIVINGSTON     PTCLDY    66  42  41 NW13      30.11F
MILES CITY     MOCLDY    75  45  34 S6        29.93R
EKALAKA          N/A     66  54  65 S5        29.99
FORSYTH          N/A     81  45  28 W8        29.95S
LAUREL           N/A     69  43  39 SW13      30.04F
ROUNDUP          N/A     73  40  30 S8        29.94R
$$

REGIONAL REPORTS...DAKOTAS

CITY           SKY/WX    TMP DP  RH WIND       PRES   REMARKS
WILLISTON      MOCLDY    74  64  71 S10       29.86F
MINOT          PTCLDY    69  62  78 SE6       29.85F
DICKINSON      MOCLDY    66  57  72 S9        29.92S
BEACH          CLOUDY    63  61  94 S6        29.95F
CROSBY           N/A     70  68  94 S12       29.83S
BISMARCK       MOCLDY    67  60  78 SE3       29.92S
GRAND FORKS    PTCLDY    64  62  93 S6        29.87F
FARGO          PTCLDY    71  65  81 S9        29.91S
BUFFALO SD       N/A     66  57  72 E7        29.92R
RAPID CITY     PTCLDY    63  60  90 SW8       29.99F
$$

REGIONAL REPORTS...WYOMING/IDAHO/WASHINGTON

CITY           SKY/WX    TMP DP  RH WIND       PRES   REMARKS
GILLETTE       CLOUDY    71  47  42 NW9       30.08R
SHERIDAN       CLOUDY    70  47  43 W8        30.08S
BUFFALO WY     CLOUDY    69  45  41 W8        30.15S
CODY           CLOUDY    63  45  51 SW13      30.19S
YELLOWSTONE LA   N/A     44  43  96 CALM      30.44R
IDAHO FALLS    CLEAR     70  46  42 S10       30.14R
SALMON         CLOUDY    73  41  31 N9        30.09R
BOISE          MOCLDY    81  37  20 E3        30.01R
SPOKANE        PTCLDY    78  39  24 SW10      29.99S
$$

REGIONAL REPORTS...ALBERTA

CITY           SKY/WX    TMP DP  RH WIND       PRES   REMARKS
EDMONTON       CLEAR     70  52  52 S5        29.78R
CALGARY        PTCLDY    66  50  55 SW5       29.90R SMOKE
LETHBRIDGE     MOCLDY    70  41  35 SW15      29.90S SMOKE
MEDICINE HAT   CLEAR     66  52  59 S7        29.84S HAZE
WATERTON GATE    N/A     66  39  37 SW7         N/A
CARDSTON         N/A     64  39  39 SW8         N/A
MILK RIVER       N/A     61  43  51 NW8         N/A
ONEFOUR          N/A     70  36  28 W5          N/A
$$

REGIONAL REPORTS...SASKATCHEWAN

CITY           SKY/WX    TMP DP  RH WIND       PRES   REMARKS
SWIFT CURRENT  CLEAR     61  54  77 SW6       29.86S HAZE
REGINA         PTCLDY    68  59  73 NE10      29.79R
SASKATOON      CLOUDY    59  57  94 W3        29.82S
CYPRESS HILLS    N/A     66  39  37 SW5         N/A
VAL MARIE        N/A     57  48  72 N5          N/A
ROCKGLEN         N/A     64  55  72 W9          N/A
ASSINIBOIA       N/A     64  54  68 S5          N/A
$$


USA.gov is the U.S. government's official web portal to all federal, state and local government web resources and services.